map of YYQ home
Great Circle Mapper logo
YYQ - Airport
Location
City:  Churchill, Manitoba, Canada
ICAO / IATA:CYYQ / YYQ

Details
Type:Airport (Airfield)
Use:Public/Civil
Latitude:5844'21"N (58.739167)
Longitude:9403'54"W (-94.064999)
Datum:WGS 1984
Elevation:94 ft (29 m)
Variation:2.09W (WMM2015 magnetic declination)
0.01 annual change
Runways:2
Longest:9200 × 160 ft (2804 × 49 m), paved

Time
Time Zone:UTC-6 (DST-5)
Local Time:

Weather
METAR:CYYQ 261100Z 16005KT 15SM FEW240 M08/M09 A3034 RMK CI2 SLP277
TAF:CYYQ 260538Z 2606/2706 VRB03KT P6SM SKC
FM262100 04006KT P6SM BKN090
FM270000 06008KT P6SM SCT015 OVC040
TEMPO 2700/2706 5SM -SHSN BR OVC015
BECMG 2701/2703 07008KT
RMK NXT FCST BY 261200Z

Related Locations
Nearby:
Farthest:YWKS: 11462 mi / 18447 km
Wilkins Runway (Casey), Upper Peterson Glacier, AQ

Find:

   beyond  
but within

Other Information
Maps:
NOTAMs:
Links:
Sources:

  
flag of Canada
flag of Manitoba
  

Airport Diagram

Airport diagram for YYQ

Airport diagram PDF

Sectional Chart

Flight Planning
at skyvector.com

Satellite Image

Google Maps Satellite View

 

Copyright © 2004-2015 Karl L. Swartz. All rights reserved.
The Great Circle Mapper name and logo are trademarks of the Great Circle Mapper.
All other trademarks mentioned herein belong to their respective owners.
Please see credits for attibutions and further copyright information.

  Follow gcmap on Facebook Follow gcmap on Twitter Follow gcmap on Google+

hCard Microformat

Geo Microformat